Regional Weather Roundup
Issued by NWS

Home | Current Version | Previous Version | Graphics & Text | Print | Product List | Glossary Off
Versions: 1 2 3 4 5 6 7 8 9 10 11 12 13 14 15 16 17 18 19 20 21 22 23 24 25 26 27 28 29 30 31 32 33 34 35 36 37 38 39 40 41 42 43 44 45 46 47 48 49 50

970
ASUS45 KTFX 060410
RWRMT
MONTANA REGIONAL WEATHER ROUNDUP
NATIONAL WEATHER SERVICE GREAT FALLS MT
900 PM MST FRI FEB 05 2016

NOTE: "FAIR" INDICATES FEW OR NO CLOUDS BELOW 12000 FEET WITH NO
SIGNIFICANT WEATHER AND/OR OBSTRUCTIONS TO VISIBILITY.

MTZ001>007-043-060500-
WEST OF THE DIVIDE

CITY           SKY/WX    TMP DP  RH WIND       PRES   REMARKS
KALISPELL      MOCLDY    32  29  88 SW5       30.14F
MISSOULA       MOCLDY    28  24  85 N3        30.23F
BUTTE          CLOUDY    34  19  54 VRB5      30.23F
MULLAN PASS    CLOUDY    29  27  92 S9G18     30.11F WCI  20
ANACONDA         N/A     36  21  55 S10G16    30.21F WCI  28
DEER LODGE       N/A     34  25  69 SE10      30.21F WCI  26
HAMILTON         N/A     41  25  52 S12       30.23F
LIBBY            N/A     30  28  93 CALM      30.12F
PLAINS           N/A     33  27  79 CALM      30.16F
$$

MTZ008-052>055-060500-
SOUTHWEST MONTANA

CITY           SKY/WX    TMP DP  RH WIND       PRES   REMARKS
BOZEMAN        CLOUDY    25  16  68 CALM      30.24F
DILLON         CLOUDY    23  15  71 SW23      30.27F WCI   7
ENNIS          CLEAR     25  16  68 S25G32    30.35F WCI   9
THREE FORKS      N/A     35   1  23 SW21      30.20F WCI  24
TWIN BRIDGES     N/A     25  14  62 SE9       30.24F WCI  16
$$

MTZ009-010-012-014-046-048-049-054-060500-
EAST SLOPES AND CENTRAL MONTANA

CITY           SKY/WX    TMP DP  RH WIND       PRES   REMARKS
CUT BANK       CLOUDY    44  19  36 W33G47    29.91F
GREAT FALLS    CLOUDY    42  23  46 SW23G30   30.02F
MALMSTROM AFB  CLOUDY    42  23  47 SW18G26   30.03F
HELENA         CLOUDY    33  24  69 CALM      30.17F
CHOTEAU          N/A     45  16  31 SW17      29.98F
CONRAD           N/A     37  25  62 CALM      29.99F
$$

MTZ011-013-016-021-045-047-050-051-060500-
NORTH CENTRAL MONTANA

CITY           SKY/WX    TMP DP  RH WIND       PRES   REMARKS
HAVRE          CLOUDY    40  27  59 SW21      29.95F
LEWISTOWN      CLOUDY    35  23  61 SW17      30.03F WCI  25
N BAR RANCH      N/A     39  21  48 NW7G16    30.02F
CHINOOK          N/A     46  25  42 SW18G29   29.92F
$$

MTZ017>020-022>027-061-062-060500-
NORTHEAST MONTANA

CITY           SKY/WX    TMP DP  RH WIND       PRES   REMARKS
GLASGOW        CLOUDY    37  25  61 W9        29.93F WCI  30
JORDAN           N/A     34  27  75 W7        29.99F WCI  28
SIDNEY         CLOUDY    30  23  74 S10       29.97F WCI  21
WOLF POINT     CLOUDY    25  21  85 CALM      29.95F
MALTA            N/A    N/A N/A N/A MISG      29.90
PLENTYWOOD       N/A     32  25  74 SW5       29.92F
POPLAR           N/A     34  27  75 W5        29.95F
$$

MTZ028>42-056>058-060500-
SOUTHCENTRAL AND SOUTHEAST MONTANA

CITY           SKY/WX    TMP DP  RH WIND       PRES   REMARKS
BAKER          CLOUDY    35  21  56 SW16      30.04F WCI  25
BILLINGS       CLOUDY    35  13  40 SW21      30.10S WCI  24
LIVINGSTON     CLOUDY    34  15  46 SW37G53   30.16F WCI  19
MILES CITY     CLOUDY    36  22  56 S3        30.05S
EKALAKA          N/A     33  18  54 SW7       30.03F WCI  27
FORSYTH          N/A     39  19  45 SW7       30.06S
LAUREL           N/A     35  12  38 SW12      30.08F WCI  27
ROUNDUP          N/A     40  18  41 SW16      29.96F
$$

REGIONAL REPORTS...DAKOTAS

CITY           SKY/WX    TMP DP  RH WIND       PRES   REMARKS
WILLISTON      CLOUDY    27  22  81 SW8       29.95F WCI  19
MINOT          CLOUDY    31  21  66 SW7       29.97F WCI  24
DICKINSON      CLOUDY    30  21  69 SW12      29.99F WCI  20
BEACH            N/A     32  23  69 SW10      30.04F WCI  24
CROSBY           N/A     25  25 100 S10       29.94F WCI  15
TIOGA            N/A     25  25 100 SW8       29.98F WCI  16
WATFORD CITY     N/A     23  21  93 SW3       29.97F
BISMARCK       CLEAR     27  22  81 CALM      30.06F
GRAND FORKS    CLOUDY    20  15  81 S8        30.07F WCI  10
FARGO          CLEAR     21  17  84 S7        30.11F WCI  12
BUFFALO SD       N/A     29  21  72 SW10      30.01F WCI  20
RAPID CITY     CLEAR     22  16  78 CALM      30.15F
$$

REGIONAL REPORTS...WYOMING/IDAHO/WASHINGTON

CITY           SKY/WX    TMP DP  RH WIND       PRES   REMARKS
GILLETTE       CLOUDY    27  13  55 SW16      30.15S WCI  15
SHERIDAN       CLEAR     25  12  58 S5        30.10F
BUFFALO WY     CLOUDY    28  11  48 SW8       30.13F WCI  20
CODY           CLOUDY    37  16  41 W18G31    30.17S WCI  27
YELLOWSTONE LA   N/A     17  14  88 VRB3      30.40R
IDAHO FALLS    CLOUDY    20  18  92 N5        30.49F
SALMON         CLOUDY    12   9  85 CALM      30.40S
BOISE          MOCLDY    36  29  75 SE12      30.42F WCI  28
SPOKANE        CLOUDY    43  33  68 S16       30.10F
$$

REGIONAL REPORTS...ALBERTA

CITY           SKY/WX    TMP DP  RH WIND       PRES   REMARKS
EDMONTON       CLEAR     36  25  64 S9        29.53F WCI  29
CALGARY        MOCLDY    41  23  48 VRB2      29.69F
LETHBRIDGE     CLOUDY    45  23  42 W32G44    29.84F
MEDICINE HAT   MOCLDY    45  28  53 SW20      29.78F
WATERTON GATE    N/A     43  19  39 SW22G37     N/A
MILK RIVER       N/A     43  21  42 W2          N/A
$$

REGIONAL REPORTS...SASKATCHEWAN

CITY           SKY/WX    TMP DP  RH WIND       PRES   REMARKS
SWIFT CURRENT  MOCLDY    36  27  69 SW17      29.76F WCI  25
REGINA         PTCLDY    23  19  86 SE9       29.83F WCI  13
SASKATOON      MOCLDY    27  23  86 S6        29.71F WCI  20
VAL MARIE        N/A     34  27  75 SW13        N/A  WCI  25
ROCKGLEN         N/A     32  25  74 W17         N/A  WCI  21
ASSINIBOIA       N/A     27  23  86 S7          N/A  WCI  19
$$




USA.gov is the U.S. government's official web portal to all federal, state and local government web resources and services.